Back to catalog

JILIN-1 GAOFEN 03D-52

AliveSciencePO
NORAD 54253·PAYLOAD·🇨🇳 China
This satellite name has not been confirmed by official sources yet.

Launched Nov 16, 2022 from Jiuquan Satellite Launch Center

Loading…

Next Passes (next 24 hours)

TLE

FreshSource: Space-Track

Epoch: Sep 14, 2026, 13:49 UTC

1 54253U 22155C   26257.57593632  .00033220  00000-0  43937-3 0  9995
2 54253  97.6339  43.9789 0005002  44.9158 315.2501 15.58256991213381

Track JILIN-1 GAOFEN 03D-52 in real time with AllMySat

Download on the App Store